Location: Vale
(35.4830°N, 81.3830°W)
Time: 10:53:54
(UTC-04:00)

Cosmos 2237 Rocket - Visible Passes

Search period start: 20 April 2018 00:00
Search period end: 30 April 2018 00:00
Orbit: 835 x 849 km, 71.0° (Epoch: 19 April)

Date Brightness Start Highest point End Pass type
(mag) Time Alt. Az. Time Alt. Az. Time Alt. Az.
20 Apr 3.6 20:23:34 10° SE 20:26:50 16° E 20:30:05 10° ENE visible
20 Apr 2.7 22:04:47 10° SW 22:10:17 58° WNW 22:15:51 10° NNE visible
21 Apr 2.7 21:49:54 10° SSW 21:55:26 61° WNW 22:01:01 10° NNE visible
22 Apr 2.6 21:35:01 10° SSW 21:40:34 65° WNW 21:46:11 10° NNE visible
23 Apr 2.5 21:20:08 10° SSW 21:25:43 68° WNW 21:31:20 10° NNE visible
24 Apr 4.3 06:17:37 10° N 06:22:43 33° ENE 06:27:47 10° SE visible
24 Apr 2.5 21:05:16 10° SSW 21:10:51 72° WNW 21:16:30 10° NNE visible
25 Apr 4.4 06:02:49 10° N 06:07:50 32° ENE 06:12:51 10° ESE visible
25 Apr 2.4 20:50:24 10° SSW 20:56:00 76° WNW 21:01:39 10° NNE visible
26 Apr 4.4 05:48:01 10° N 05:52:58 30° ENE 05:57:54 10° ESE visible
26 Apr 2.4 20:35:32 10° SSW 20:41:08 80° WNW 20:46:48 10° NNE visible
26 Apr 5.6 22:25:02 10° WNW 22:26:06 10° NW 22:27:11 10° NW visible
27 Apr 4.5 05:33:13 10° N 05:38:05 29° ENE 05:42:57 10° ESE visible
27 Apr 5.6 22:09:36 10° WNW 22:11:12 11° NW 22:12:48 10° NW visible
28 Apr 4.5 05:18:26 10° N 05:23:13 27° ENE 05:28:00 10° ESE visible
28 Apr 5.6 21:54:19 10° WNW 21:56:18 12° NW 21:58:17 10° NNW visible
29 Apr 4.5 05:03:38 10° N 05:08:21 26° ENE 05:13:02 10° ESE visible
29 Apr 5.5 21:39:07 10° WNW 21:41:24 12° NW 21:43:42 10° NNW visible
